When you browse on this site, cookies collect data to enhance your experience and personalize the content and advertising you see.
Visit our Privacy Policy to learn more. By continuing to use the site, you agree to this use of cookies and data.
  • In Austria
  • List of Countries
  • For 7 days
  • Water Temperature
  • Weather Map
  • News
  • Weather Widgets
  • user-avatar
    Login

    Hourly Weather Tula de Allende

    Today, 19 August, Monday

    Time Temperature Precipitation Wind Pressure Humidity
    00:00 +15°C° 0 mm 1 mps 594 mmHg 96%
    01:00 +15°C° 0 mm 1 mps 593 mmHg 97%
    02:00 +14°C° 0 mm 0 mps 593 mmHg 97%
    03:00 +15°C° 0 mm 1 mps 594 mmHg 96%
    04:00 +16°C° 0 mm 1 mps 594 mmHg 95%
    05:00 +16°C° 0 mm 1 mps 594 mmHg 95%
    06:00 +18°C° 0 mm 1 mps 595 mmHg 89%
    07:00 +18°C° 0 mm 1 mps 595 mmHg 84%
    08:00 +19°C° 0 mm 1 mps 595 mmHg 79%
    09:00 +19°C° 0 mm 2 mps 596 mmHg 73%
    10:00 +21°C° 0 mm 3 mps 596 mmHg 67%
    11:00 +22°C° 0 mm 4 mps 596 mmHg 62%
    12:00 +22°C° 0.3 mm 5 mps 596 mmHg 62%
    13:00 +23°C° 0.3 mm 6 mps 595 mmHg 63%
    14:00 +23°C° 0.3 mm 7 mps 595 mmHg 64%
    15:00 +22°C° 0.4 mm 7 mps 595 mmHg 68%
    16:00 +21°C° 0.4 mm 6 mps 594 mmHg 72%
    17:00 +19°C° 0.4 mm 6 mps 594 mmHg 76%
    18:00 +17°C° 0 mm 5 mps 594 mmHg 81%
    19:00 +17°C° 0 mm 3 mps 594 mmHg 87%
    20:00 +16°C° 0 mm 2 mps 594 mmHg 92%
    21:00 +15°C° 0 mm 2 mps 594 mmHg 93%
    22:00 +15°C° 0 mm 1 mps 594 mmHg 95%
    23:00 +14°C° 0 mm 1 mps 594 mmHg 96%

    Tomorrow, 20 August, Tuesday

    Time Temperature Precipitation Wind Pressure Humidity
    00:00 +14°C° 0 mm 1 mps 594 mmHg 96%
    01:00 +13°C° 0 mm 1 mps 593 mmHg 96%
    02:00 +13°C° 0 mm 1 mps 593 mmHg 96%
    03:00 +13°C° 0 mm 1 mps 593 mmHg 96%
    04:00 +12°C° 0 mm 0 mps 593 mmHg 95%
    05:00 +12°C° 0 mm 0 mps 593 mmHg 95%
    06:00 +13°C° 0 mm 0 mps 594 mmHg 88%
    07:00 +15°C° 0 mm 1 mps 595 mmHg 81%
    08:00 +16°C° 0 mm 1 mps 595 mmHg 74%
    09:00 +19°C° 0 mm 1 mps 596 mmHg 66%
    10:00 +20°C° 0 mm 2 mps 596 mmHg 59%
    11:00 +22°C° 0 mm 3 mps 597 mmHg 51%
    12:00 +22°C° 0 mm 4 mps 596 mmHg 53%
    13:00 +22°C° 0 mm 5 mps 596 mmHg 55%
    14:00 +23°C° 0 mm 6 mps 595 mmHg 58%
    15:00 +21°C° 0.4 mm 6 mps 595 mmHg 64%
    16:00 +20°C° 0.4 mm 6 mps 595 mmHg 71%
    17:00 +19°C° 0.4 mm 6 mps 594 mmHg 78%
    18:00 +17°C° 0.1 mm 5 mps 594 mmHg 83%
    19:00 +16°C° 0.1 mm 3 mps 594 mmHg 88%
    20:00 +15°C° 0.1 mm 2 mps 594 mmHg 93%
    21:00 +15°C° 0 mm 1 mps 594 mmHg 94%
    22:00 +15°C° 0 mm 1 mps 594 mmHg 95%
    23:00 +14°C° 0 mm 1 mps 595 mmHg 96%

    Day after tomorrow, 21 August, Wednesday

    Time Temperature Precipitation Wind Pressure Humidity
    00:00 +14°C° 0 mm 1 mps 594 mmHg 96%
    01:00 +14°C° 0 mm 1 mps 594 mmHg 95%
    02:00 +13°C° 0 mm 0 mps 594 mmHg 95%
    03:00 +13°C° 0 mm 0 mps 594 mmHg 95%
    04:00 +12°C° 0 mm 0 mps 594 mmHg 95%
    05:00 +12°C° 0 mm 0 mps 594 mmHg 95%
    06:00 +13°C° 0 mm 0 mps 594 mmHg 90%
    07:00 +14°C° 0 mm 0 mps 595 mmHg 85%
    08:00 +18°C° 0 mm 1 mps 596 mmHg 80%
    09:00 +19°C° 0 mm 1 mps 596 mmHg 73%
    10:00 +20°C° 0 mm 2 mps 596 mmHg 66%
    11:00 +21°C° 0 mm 2 mps 596 mmHg 59%
    12:00 +22°C° 0 mm 3 mps 596 mmHg 58%
    13:00 +23°C° 0 mm 4 mps 596 mmHg 56%
    14:00 +23°C° 0 mm 4 mps 595 mmHg 55%
    15:00 +22°C° 0.6 mm 4 mps 595 mmHg 63%
    16:00 +21°C° 0.6 mm 5 mps 595 mmHg 70%
    17:00 +20°C° 0.6 mm 5 mps 594 mmHg 78%
    18:00 +18°C° 0.2 mm 4 mps 594 mmHg 82%
    19:00 +17°C° 0.2 mm 3 mps 594 mmHg 87%
    20:00 +15°C° 0.2 mm 1 mps 594 mmHg 92%
    21:00 +15°C° 0 mm 1 mps 594 mmHg 93%
    22:00 +14°C° 0 mm 1 mps 594 mmHg 93%
    23:00 +13°C° 0 mm 0 mps 594 mmHg 94%

    22 August, Thursday

    Time Temperature Precipitation Wind Pressure Humidity
    00:00 +13°C° 0 mm 0 mps 593 mmHg 94%
    01:00 +12°C° 0 mm 0 mps 593 mmHg 94%
    02:00 +12°C° 0 mm 0 mps 592 mmHg 94%
    03:00 +12°C° 0 mm 0 mps 592 mmHg 94%
    04:00 +12°C° 0 mm 0 mps 593 mmHg 94%
    05:00 +13°C° 0 mm 1 mps 593 mmHg 94%
    06:00 +15°C° 0 mm 1 mps 594 mmHg 87%
    07:00 +18°C° 0 mm 1 mps 595 mmHg 81%
    08:00 +20°C° 0 mm 1 mps 596 mmHg 75%
    09:00 +21°C° 0.3 mm 1 mps 596 mmHg 69%
    10:00 +23°C° 0.3 mm 1 mps 597 mmHg 64%
    11:00 +24°C° 0.3 mm 1 mps 597 mmHg 59%
    12:00 +24°C° 1.6 mm 1 mps 597 mmHg 59%
    13:00 +24°C° 1.6 mm 2 mps 596 mmHg 60%
    14:00 +24°C° 1.6 mm 2 mps 595 mmHg 61%
    15:00 +24°C° 1.9 mm 2 mps 595 mmHg 66%
    16:00 +23°C° 1.9 mm 2 mps 595 mmHg 71%
    17:00 +22°C° 1.9 mm 1 mps 594 mmHg 77%
    18:00 +21°C° 1.3 mm 1 mps 594 mmHg 80%
    19:00 +20°C° 1.3 mm 1 mps 595 mmHg 84%
    20:00 +19°C° 1.3 mm 1 mps 595 mmHg 88%
    21:00 +18°C° 1.4 mm 1 mps 595 mmHg 90%
    22:00 +17°C° 1.4 mm 2 mps 595 mmHg 91%
    23:00 +16°C° 1.4 mm 2 mps 595 mmHg 92%

    23 August, Friday

    Time Temperature Precipitation Wind Pressure Humidity
    00:00 +16°C° 0.6 mm 2 mps 595 mmHg 92%
    01:00 +16°C° 0.6 mm 1 mps 594 mmHg 92%
    02:00 +16°C° 0.6 mm 1 mps 594 mmHg 91%
    03:00 +15°C° 0.2 mm 1 mps 594 mmHg 91%
    04:00 +15°C° 0.2 mm 1 mps 594 mmHg 91%
    05:00 +15°C° 0.2 mm 1 mps 594 mmHg 91%
    06:00 +16°C° 0 mm 1 mps 595 mmHg 86%
    07:00 +18°C° 0 mm 1 mps 596 mmHg 81%
    08:00 +19°C° 0 mm 1 mps 596 mmHg 76%
    09:00 +21°C° 0.1 mm 1 mps 597 mmHg 71%
    10:00 +22°C° 0.1 mm 1 mps 597 mmHg 65%
    11:00 +24°C° 0.1 mm 1 mps 597 mmHg 59%
    12:00 +24°C° 1 mm 1 mps 597 mmHg 59%
    13:00 +24°C° 1 mm 1 mps 596 mmHg 59%
    14:00 +24°C° 1 mm 1 mps 596 mmHg 59%
    15:00 +22°C° 3.2 mm 1 mps 595 mmHg 70%
    16:00 +20°C° 3.2 mm 1 mps 594 mmHg 81%
    17:00 +17°C° 3.2 mm 2 mps 594 mmHg 92%
    18:00 +18°C° 4.6 mm 1 mps 594 mmHg 92%
    19:00 +16°C° 4.6 mm 1 mps 594 mmHg 92%
    20:00 +16°C° 4.6 mm 1 mps 595 mmHg 93%
    21:00 +16°C° 0 mm 1 mps 595 mmHg 92%
    22:00 +15°C° 0 mm 0 mps 595 mmHg 91%
    23:00 +15°C° 0 mm 0 mps 595 mmHg 91%

    24 August, Saturday

    Time Temperature Precipitation Wind Pressure Humidity
    00:00 +14°C° 0 mm 0 mps 595 mmHg 91%
    01:00 +14°C° 0 mm 0 mps 595 mmHg 91%
    02:00 +14°C° 0 mm 0 mps 595 mmHg 91%
    03:00 +14°C° 0 mm 0 mps 595 mmHg 91%
    04:00 +14°C° 0 mm 0 mps 595 mmHg 91%
    05:00 +14°C° 0 mm 0 mps 595 mmHg 90%
    06:00 +15°C° 0 mm 0 mps 596 mmHg 86%
    07:00 +16°C° 0 mm 0 mps 596 mmHg 82%
    08:00 +17°C° 0 mm 0 mps 597 mmHg 77%
    09:00 +20°C° 0.6 mm 1 mps 597 mmHg 73%
    10:00 +21°C° 0.6 mm 1 mps 597 mmHg 70%
    11:00 +21°C° 0.6 mm 2 mps 597 mmHg 66%
    12:00 +21°C° 0.7 mm 2 mps 597 mmHg 64%
    13:00 +23°C° 0.7 mm 2 mps 597 mmHg 63%
    14:00 +22°C° 0.7 mm 3 mps 596 mmHg 61%
    15:00 +23°C° 0.2 mm 2 mps 596 mmHg 65%
    16:00 +21°C° 0.2 mm 2 mps 596 mmHg 68%
    17:00 +21°C° 0.2 mm 2 mps 595 mmHg 71%
    18:00 +20°C° 0 mm 1 mps 595 mmHg 74%
    19:00 +19°C° 0 mm 1 mps 595 mmHg 76%
    20:00 +16°C° 0 mm 1 mps 594 mmHg 79%
    21:00 +16°C° 0 mm 1 mps 595 mmHg 80%
    22:00 +16°C° 0 mm 1 mps 595 mmHg 80%
    23:00 +15°C° 0 mm 1 mps 595 mmHg 81%
    Show more